Tracking 17887 objects as of 11-December-2016
HD Live streaming from Space Station
objects crossing your sky now

ARIANE 5 R/B

Track ARIANE 5 R/B now!


NORAD ID: 29275
Int'l Code: 2006-033D
Perigee: 257.5 km
Apogee: 33,364.2 km
Inclination: 6.3 °
Period: 585.4 minutes
Semi major axis: 23181 km
RCS: 37.7588 m2 (large)
Launch date: August 11, 2006
Source: France (FR)
Launch site: FRENCH GUIANA (FRGUI)

Note: This is a ROCKET BODY
Your satellite tracking list
Your tracking list is empty





NASA's NSSDC Master Catalog

Two Line Element Set (TLE):
1 29275U 06033D   16345.35344001  .00003096  00000-0  86300-3 0  9994
2 29275   6.2522 293.2439 7140652 157.1660 265.1845  2.45969622 89202
Source of the keplerian elements: AFSPC